Regional Weather Roundup
Issued by NWS

Home | Current Version | Previous Version | Graphics & Text | Print | Product List | Glossary On
Versions: 1 2 3 4 5 6 7 8 9 10 11 12 13 14 15 16 17 18 19 20 21 22 23 24 25 26 27
000
ASUS45 KCYS 310010
RWRWY

WYOMING REGIONAL WEATHER ROUNDUP
NATIONAL WEATHER SERVICE CHEYENNE WY
600 PM MDT THU OCT 30 2014

NOTE:  "FAIR" INDICATES FEW OR NO CLOUDS BELOW 12,000 FEET
WITH NO SIGNIFICANT WEATHER AND/OR OBSTRUCTIONS TO VISIBILITY.

WYZ001-310100-
YELLOWSTONE NATIONAL PARK

CITY           SKY/WX    TMP DP  RH WIND       PRES   REMARKS
LK YELLOWSTONE   N/A     37  30  75 CALM      30.36
6HR MIN TEMP:  37; 6HR MAX TEMP:  48;

W YELLOWSTONE  NOT AVBL

$$
WYZ002>013-054>058-071-098>099-310100-
NORTHERN WYOMING

CITY           SKY/WX    TMP DP  RH WIND       PRES   REMARKS
JACKSON        NOT AVBL
CODY           PTCLDY    54  27  35 E7        30.27
GREYBULL       MOCLDY    59  27  29 SW3       30.24F
6HR MIN TEMP:  50; 6HR MAX TEMP:  64;

WORLAND        MOCLDY    50  28  42 CALM      30.25S
6HR MIN TEMP:  50; 6HR MAX TEMP:  63;

SHERIDAN       CLEAR     54  28  36 SE3       30.29F
6HR MIN TEMP:  54; 6HR MAX TEMP:  62;

BUFFALO        CLEAR     51  25  36 SE6       30.34S
6HR MIN TEMP:  51; 6HR MAX TEMP:  58;

GILLETTE       CLEAR     48  29  47 E6        30.33F
6HR MIN TEMP:  48; 6HR MAX TEMP:  59;

HULETT         FAIR      45  34  65 E9G16     30.37
NEWCASTLE      FAIR      50  28  43 NW3       30.35

$$
WYZ014>020-022>026-101>103-310100-
CENTRAL WYOMING

CITY           SKY/WX    TMP DP  RH WIND       PRES   REMARKS
BIG PINEY      PTCLDY    52  25  35 SE6       30.32F
6HR MIN TEMP:  45; 6HR MAX TEMP:  58;

PINEDALE       MOCLDY    50  25  37 S5        30.34
DUBOIS         FAIR      46  23  39 SE13      30.31S
LANDER         PTCLDY    52  27  38 E6        30.27S
6HR MIN TEMP:  50; 6HR MAX TEMP:  60;

RIVERTON       MOCLDY    52  24  33 N8        30.29S
6HR MIN TEMP:  48; 6HR MAX TEMP:  56;

CASPER         CLEAR     53  18  25 E8        30.31S
6HR MIN TEMP:  51; 6HR MAX TEMP:  60;

DOUGLAS        CLEAR     49  25  39 E9        30.34R
6HR MIN TEMP:  49; 6HR MAX TEMP:  62;


$$
WYZ021-027>030-104>119-310100-
SOUTHERN WYOMING

CITY           SKY/WX    TMP DP  RH WIND       PRES   REMARKS
EVANSTON       CLEAR     58  28  32 E10       30.28F
6HR MIN TEMP:  58; 6HR MAX TEMP:  65;

KEMMERER       PTCLDY    54  28  37 SE5       30.31F
FORT BRIDGER   FAIR      59  28  31 E7        30.32F
ROCK SPRINGS   CLEAR     56  25  30 NE3       30.31F
6HR MIN TEMP:  51; 6HR MAX TEMP:  61;

RAWLINS        CLEAR     52  22  30 N8        30.34R
6HR MIN TEMP:  52; 6HR MAX TEMP:  60;

SARATOGA       FAIR      54  23  30 NE3       30.36R
LARAMIE        CLEAR     47  20  34 E6        30.37R
6HR MIN TEMP:  47; 6HR MAX TEMP:  57;

CHEYENNE       CLEAR     50  26  39 E7        30.37R
6HR MIN TEMP:  49; 6HR MAX TEMP:  60;

TORRINGTON     CLEAR     52  27  38 N12       30.32R
6HR MIN TEMP:  52; 6HR MAX TEMP:  64;

PINE BLUFFS    FAIR      46  30  53 NE7       30.36R

$$



USA.gov is the U.S. government's official web portal to all federal, state and local government web resources and services.